Location: Boncourt
(49.6160°N, 3.9448°E)
Time: 00:02:59
(UTC+00:00)

Cosmos 2208 Rocket - Pass Details

Date: 09 February 2023
Orbit: 753 x 805 km, 74.0° (Epoch: 01 April)

Event Time Altitude Azimuth Distance (km) Brightness Sun altitude
Rises 18:37:33 0° 336° (NNW) 3,219 7.5 -17.4°
Reaches altitude 10° 18:39:56 10° 338° (NNW) 2,292 6.7 -17.7°
Maximum altitude 18:45:08 79° 66° (ENE) 778 3.9 -18.6°
Enters shadow 18:50:20 10° 153° (SSE) 2,293 6.2 -19.4°
